Location: Unspecified
(50.7170°N, 0.0000°E)
Time: 20:28:49
(UTC+00:00)

IRIDIUM 112 - Visible Passes

Search period start: 04 April 2026 00:00
Search period end: 14 April 2026 00:00
Orbit: 776 x 779 km, 86.4° (Epoch: 29 March)

Date Brightness Start Highest point End Pass type
(mag) Time Alt. Az. Time Alt. Az. Time Alt. Az.
4 Apr ? 04:50:24 10° NE 04:52:17 12° ENE 04:54:09 10° E visible
4 Apr ? 19:30:49 10° SSW 19:36:00 69° W 19:41:15 10° N visible
4 Apr ? 21:15:57 10° W 21:17:47 12° WNW 21:19:39 10° NW visible
5 Apr ? 20:40:05 10° WSW 20:43:47 19° WNW 20:47:30 10° NNW visible
6 Apr ? 20:05:19 10° SW 20:09:55 31° WNW 20:14:32 10° NNW visible
7 Apr ? 19:31:07 10° SSW 19:36:10 50° W 19:41:16 10° N visible
8 Apr ? 20:41:22 10° W 20:44:09 14° WNW 20:46:57 10° NNW visible
9 Apr ? 20:06:05 10° WSW 20:10:12 23° WNW 20:14:20 10° NNW visible
10 Apr ? 19:31:34 10° SW 19:36:22 37° WNW 19:41:14 10° N visible
11 Apr ? 04:16:37 10° NE 04:19:03 13° ENE 04:21:29 10° E visible
11 Apr ? 20:43:36 10° WNW 20:44:35 10° WNW 20:45:34 10° NW visible
12 Apr ? 20:07:07 10° WSW 20:10:32 17° WNW 20:13:59 10° NNW visible
13 Apr ? 19:32:11 10° SW 19:36:38 28° WNW 19:41:06 10° NNW visible
